MOZHAYETS 4 (RS-22) (27939 NORAD) Tracking and Keplerian Element Data

This shows tracking and keplerian element data for the satellite.

Feedback or suggestion? Click here.




ElementValue
Catalog27939
NameMOZHAYETS 4 (RS-22)
Epoch Orbit2402
Epoch Day325.15609896
Epoch Year2022
RAAN106.071
Inclination98.2134
Eccentricity0.001388
Argument of Perigee75.5793
Mean Anonmoly284.6934
Mean Motion14.67624191
Decay Rate6.7E-06
L11 27939U 03042A 22325.15609896 .00000670 00000+0 12661-3 0 9998
L22 27939 98.2134 106.0710 0013880 75.5793 284.6934 14.67624191 24025



Live tracking and technical data element details for MOZHAYETS 4 (RS-22) (NORAD 27939). MOZHAYETS 4 (RS-22) can be tracked NOW for your location showing map with azimuth and elevation plus other details from your city location.







IsCatalogInMostPopularTable: catalog: 27939, numindb: 341
Update: records affected: 1



GetName: 27939 MOZHAYETS 4 (RS-22)

Hit Count: updated at: Fri, 02 Dec 2022 12:50:09 GMT